TimeMST,TemperatureF,Dew PointF,Humidity,Sea Level PressureIn,VisibilityMPH,Wind Direction,Wind SpeedMPH,Gust SpeedMPH,PrecipitationIn,Events,Conditions,WindDirDegrees,DateUTC
12:53 AM,19.9,12.0,71,30.56,10.0,SSE,5.8,-,N/A,,Clear,160,2012-01-29 07:53:00
1:53 AM,19.9,12.0,71,30.56,10.0,SE,5.8,-,N/A,,Clear,130,2012-01-29 08:53:00
2:53 AM,19.0,12.0,74,30.57,10.0,SSE,6.9,-,N/A,,Clear,150,2012-01-29 09:53:00
3:53 AM,19.9,10.9,68,30.56,10.0,South,10.4,-,N/A,,Clear,170,2012-01-29 10:53:00
4:53 AM,19.0,10.0,68,30.54,10.0,SSE,8.1,-,N/A,,Clear,160,2012-01-29 11:53:00
5:53 AM,18.0,10.0,71,30.56,10.0,SSE,5.8,-,N/A,,Clear,150,2012-01-29 12:53:00
6:53 AM,17.1,10.0,74,30.58,10.0,South,5.8,-,N/A,,Clear,170,2012-01-29 13:53:00
7:53 AM,18.0,10.0,71,30.58,10.0,SE,5.8,-,N/A,,Clear,140,2012-01-29 14:53:00
8:53 AM,21.0,12.0,68,30.58,10.0,Calm,Calm,-,N/A,,Clear,0,2012-01-29 15:53:00
10:53 AM,30.9,10.0,42,30.54,10.0,Calm,Calm,-,N/A,,Clear,0,2012-01-29 17:53:00
11:53 AM,33.1,10.9,40,30.51,10.0,Calm,Calm,-,N/A,,Clear,0,2012-01-29 18:53:00
12:53 PM,36.0,12.9,39,30.45,10.0,Calm,Calm,-,N/A,,Clear,0,2012-01-29 19:53:00
2:53 PM,39.9,14.0,35,30.37,10.0,Calm,Calm,-,N/A,,Clear,0,2012-01-29 21:53:00
3:53 PM,41.0,19.9,43,30.35,10.0,NNW,3.5,-,N/A,,Clear,330,2012-01-29 22:53:00
4:53 PM,37.0,21.0,52,30.36,10.0,North,3.5,-,N/A,,Clear,360,2012-01-29 23:53:00
5:53 PM,34.0,21.9,61,30.37,10.0,Calm,Calm,-,N/A,,Clear,0,2012-01-30 00:53:00
6:53 PM,30.9,25.0,79,30.39,10.0,ESE,3.5,-,N/A,,Clear,120,2012-01-30 01:53:00
7:53 PM,30.0,23.0,75,30.38,10.0,SE,4.6,-,N/A,,Clear,130,2012-01-30 02:53:00
9:53 PM,28.9,23.0,78,30.32,10.0,ESE,3.5,-,N/A,,Clear,120,2012-01-30 04:53:00
10:53 PM,28.9,21.9,75,30.30,10.0,South,3.5,-,N/A,,Clear,180,2012-01-30 05:53:00
11:53 PM,26.1,21.9,84,30.28,9.0,SE,4.6,-,N/A,,Clear,130,2012-01-30 06:53:00